Vorticity
nan nan nan nan nan nan nan nan nan nan nan nan nan nan nan nan nan nan nan nan nan nan nan nan nan nan nan nan nan nan nan nan nan nan nan nan nan nan nan nan nan nan nan nan nan nan nan nan nan nan nan nan nan nan nan nan nan nan nan nan nan nan nan nan nan nan nan nan nan
nan 8 8 8 8 8 9 9 9 9 8 9 9 9 8 9 9 10 10 9 9 9 10 10 9 8 8 8 6 5 4 4 5 6 7 9 10 10 11 11 11 11 11 9 9 9 8 8 9 9 9 9 8 8 8 8 8 8 8 11 12 9 8 7 7 7 9 11 nan
nan 9 9 8 7 6 7 8 9 9 8 8 8 8 8 8 9 9 9 9 8 8 9 10 10 9 9 8 7 6 4 4 4 5 7 9 10 10 11 11 10 10 10 9 9 9 8 8 9 9 9 9 9 8 7 7 8 8 8 10 12 10 9 7 7 9 10 8 nan
nan 8 9 9 8 6 5 6 9 10 10 9 9 9 8 8 8 7 7 8 9 9 9 9 8 9 9 9 8 7 5 4 4 5 6 8 9 10 10 10 10 10 9 9 8 8 8 8 9 9 9 9 8 8 8 8 8 10 9 9 9 9 9 9 8 9 9 7 nan
nan 8 8 9 9 8 7 7 8 10 10 10 9 9 9 9 8 8 7 8 9 8 8 8 7 7 8 9 9 8 6 5 5 6 5 7 9 10 10 9 9 9 8 8 8 8 8 9 9 9 8 7 8 8 8 9 9 10 10 9 8 8 9 9 9 9 8 8 nan
nan 9 7 7 9 9 9 8 9 10 9 9 9 8 7 8 8 8 7 7 7 8 8 9 8 8 8 10 10 9 8 7 7 6 5 5 8 9 10 9 9 8 7 7 8 8 8 9 10 9 9 7 7 8 9 10 10 10 10 9 9 8 8 9 9 8 7 7 nan
nan 9 8 8 8 8 7 7 9 10 9 10 11 9 7 6 7 7 6 6 7 9 10 10 9 8 9 11 12 11 8 7 7 7 6 6 7 8 9 9 9 8 7 7 7 8 8 9 10 9 9 8 7 7 8 11 11 10 10 9 9 8 8 9 10 7 4 5 nan
nan 9 9 9 9 8 8 8 8 9 9 9 11 11 9 8 8 8 8 7 8 9 9 9 9 9 9 10 11 11 10 8 8 8 7 6 6 8 9 10 9 8 7 7 7 7 8 10 11 10 9 8 7 7 7 10 11 11 9 9 10 9 9 9 9 8 5 5 nan
nan 10 10 9 9 9 9 9 9 8 7 8 10 11 11 10 10 9 9 10 10 10 9 9 10 9 9 10 11 11 10 9 9 8 8 7 7 8 9 11 11 10 10 8 7 7 8 10 10 10 9 9 9 8 8 9 10 9 9 8 9 10 10 9 9 9 7 6 nan
nan 10 10 10 10 9 9 9 10 9 9 10 11 11 11 10 9 9 9 10 11 11 10 10 10 11 11 11 11 11 10 9 9 9 8 8 8 9 9 10 11 11 10 9 8 8 8 10 10 9 9 9 10 9 8 8 8 9 9 9 8 8 10 10 9 8 8 7 nan
nan 9 9 9 10 10 10 9 10 11 11 11 12 11 10 8 8 9 9 10 11 11 11 11 11 11 12 12 13 12 10 9 9 9 9 9 9 10 10 9 10 11 10 8 7 8 10 11 10 9 8 8 8 7 7 8 8 9 9 10 8 8 8 9 10 9 7 6 nan
nan 10 9 9 10 10 9 9 9 10 11 11 11 11 10 8 8 9 9 10 11 11 12 11 11 11 11 12 13 12 12 10 9 9 9 10 10 10 10 10 10 10 9 7 6 8 10 11 9 9 8 8 7 8 8 7 7 7 8 8 8 8 7 8 10 10 8 7 nan
nan 10 10 10 10 9 9 8 9 10 11 11 10 9 9 9 9 9 9 10 11 11 12 12 11 10 10 11 12 12 12 11 10 9 9 10 10 10 10 11 11 10 9 8 7 8 9 10 9 9 8 8 8 9 9 8 7 7 7 7 7 8 7 8 9 10 9 9 nan
nan 11 10 10 10 9 9 8 8 10 11 11 10 9 9 9 9 9 9 10 11 11 11 10 10 10 10 10 11 12 11 11 11 10 10 10 10 10 10 11 11 9 8 8 9 8 9 9 9 9 8 8 8 9 9 8 8 8 7 7 7 7 7 7 8 8 8 9 nan
nan 12 11 10 9 8 9 8 9 10 11 11 11 10 9 10 9 9 9 10 10 10 9 9 9 10 10 10 11 11 11 10 11 11 11 10 9 9 9 10 10 9 8 8 8 9 10 11 10 9 9 8 8 9 9 9 9 8 8 8 7 7 7 7 8 8 8 8 nan
nan 12 11 10 8 7 7 7 8 10 11 11 11 10 9 9 9 9 9 9 9 9 9 9 9 10 11 11 11 12 11 11 11 11 11 10 10 9 8 8 9 9 9 8 8 8 9 10 10 10 10 9 8 8 9 9 8 8 8 8 8 8 7 7 8 8 8 8 nan
nan 13 12 10 9 7 6 6 6 8 10 11 11 10 9 9 9 9 9 9 7 7 8 8 8 9 10 11 11 12 11 11 11 11 11 11 10 9 8 7 8 8 9 8 8 8 8 8 9 10 10 9 8 8 8 8 8 8 7 7 8 8 8 8 8 8 7 7 nan
nan 14 13 11 9 8 7 6 6 7 8 10 10 10 9 9 9 9 9 9 7 7 7 7 8 8 9 10 10 11 11 11 10 10 10 10 10 10 9 8 8 8 9 9 8 8 8 8 8 8 9 8 8 8 8 7 7 7 7 7 7 8 8 8 8 8 7 7 nan
nan 15 14 12 10 10 9 8 7 8 9 10 10 10 10 9 8 8 8 8 8 7 7 7 8 9 10 10 10 9 10 11 10 10 10 10 10 10 10 9 9 9 9 9 9 8 7 8 9 8 8 7 8 8 8 7 7 7 6 6 6 7 7 7 8 8 8 8 nan
nan 15 15 13 12 11 10 10 9 9 9 10 10 10 9 9 9 8 8 8 9 8 8 7 8 9 10 10 10 9 9 10 10 10 9 9 10 10 11 10 10 10 10 10 9 8 7 8 10 10 9 8 8 8 7 7 7 7 6 6 6 7 7 7 7 8 8 8 nan
nan 15 15 15 13 12 11 10 10 10 10 10 10 10 9 9 9 9 9 10 10 9 9 8 8 9 10 10 10 9 8 9 10 10 9 9 10 11 11 11 11 11 11 11 10 8 7 7 9 9 10 10 8 7 6 6 6 7 7 8 8 7 7 7 7 7 7 8 nan
nan 14 15 15 14 12 11 10 10 11 11 11 11 10 9 9 9 10 11 11 11 11 10 9 9 9 10 10 10 9 9 9 9 9 9 9 10 11 10 11 11 11 12 12 11 10 8 7 7 8 9 9 9 8 7 7 7 7 7 8 8 7 7 7 7 7 7 7 nan
nan 13 15 17 16 14 12 11 10 11 11 11 11 10 9 8 9 10 11 11 12 11 10 10 10 10 9 9 9 10 9 9 9 9 8 8 9 10 10 11 12 12 11 12 12 11 9 9 8 8 8 9 9 8 8 8 9 8 8 7 7 7 7 7 7 7 7 8 nan
nan 14 14 15 15 15 13 12 11 11 11 11 11 11 9 8 9 10 10 10 11 11 9 9 11 11 9 8 9 10 10 10 9 8 8 8 9 10 10 10 12 12 11 12 12 10 8 8 9 9 9 9 9 9 9 9 10 10 9 7 7 7 7 7 7 7 7 8 nan
nan 15 14 12 13 14 13 12 11 11 11 11 12 11 10 8 8 9 10 10 10 10 9 9 10 10 9 9 9 10 10 10 9 8 8 9 9 10 10 10 11 12 13 15 15 11 7 5 7 9 10 9 9 9 9 9 10 10 9 8 7 7 7 7 7 7 7 7 nan
nan 17 16 14 13 13 13 13 12 11 11 11 11 11 10 9 9 9 9 10 10 10 10 9 10 9 8 9 9 10 10 10 10 9 9 9 10 10 9 9 10 12 15 19 18 13 9 6 6 7 8 9 9 9 8 9 10 10 10 9 8 8 8 7 7 7 7 7 nan
nan 17 17 16 14 14 13 13 12 12 11 11 11 11 10 9 8 10 10 10 10 10 9 9 10 9 8 9 10 10 9 9 10 9 9 9 10 10 9 8 9 12 17 21 19 15 12 9 8 8 7 8 9 9 9 9 9 9 9 9 9 9 9 8 7 7 7 8 nan
nan 17 17 16 15 14 13 13 12 12 12 11 11 10 11 10 9 9 9 10 10 9 8 9 9 8 8 11 12 11 10 9 8 9 9 10 10 10 9 8 9 12 17 19 18 15 13 11 9 8 7 7 7 9 9 9 8 8 8 8 9 9 8 8 7 7 7 8 nan
nan 17 18 18 16 15 14 13 13 12 12 12 11 11 11 10 9 8 9 9 8 6 6 8 9 8 9 11 11 12 11 9 8 8 10 10 10 10 10 9 9 11 14 17 17 15 14 12 10 9 7 6 6 8 9 9 9 8 8 9 9 9 9 9 9 8 8 8 nan
nan 18 19 18 17 15 14 13 13 13 12 12 13 12 11 10 9 9 9 9 8 6 6 7 9 9 9 9 9 11 11 10 8 9 9 10 10 11 11 10 10 11 13 15 15 15 14 12 11 9 7 6 5 7 9 10 10 9 9 10 10 10 9 9 9 9 9 9 nan
nan 18 20 19 18 16 15 14 13 13 11 11 12 11 10 10 9 8 8 8 8 8 9 9 9 9 8 7 8 10 10 10 9 9 9 9 11 11 11 10 9 10 13 15 14 14 14 13 11 10 8 5 4 6 10 11 11 10 11 12 11 10 8 7 8 9 9 10 nan
nan 18 20 21 19 17 15 14 14 13 13 11 11 10 10 10 9 8 8 8 10 10 10 10 9 8 8 7 8 9 10 10 9 8 8 9 10 11 11 10 10 10 13 14 14 14 14 13 12 10 8 5 5 8 10 11 10 10 11 11 10 9 8 9 8 9 9 9 nan
nan 16 20 22 21 18 16 15 14 14 13 12 11 10 10 10 9 9 8 8 10 11 11 10 9 8 8 8 9 9 10 10 10 9 8 8 9 10 9 9 10 12 14 14 13 13 13 13 11 10 8 5 5 8 10 9 9 10 10 10 9 8 8 9 9 9 9 9 nan
nan 14 19 22 22 20 18 16 15 14 13 12 11 11 10 10 9 9 8 8 9 10 11 10 10 9 9 9 9 9 9 10 11 10 9 9 9 9 8 7 10 14 15 14 13 13 13 12 11 9 7 4 4 8 10 10 10 11 11 10 9 8 8 8 8 8 9 10 nan
nan 12 16 21 23 21 19 16 15 14 12 11 11 11 11 10 10 9 9 9 9 9 10 11 10 10 10 10 10 10 9 10 10 10 9 9 9 10 9 9 11 15 15 13 12 12 12 11 10 8 5 2 4 9 10 10 10 11 11 9 8 7 7 7 7 7 8 10 nan
nan 10 13 18 22 22 20 17 15 13 12 11 11 12 11 10 9 10 10 10 9 9 10 10 10 10 10 10 10 10 10 10 10 9 9 9 10 10 10 10 13 15 14 12 11 11 11 11 9 6 2 1 5 9 9 9 10 10 10 8 7 6 5 5 6 7 9 10 nan
nan 9 11 16 21 22 21 18 15 13 12 11 12 12 12 10 9 10 10 10 10 10 10 10 10 10 10 9 9 10 10 12 13 10 9 9 9 10 10 11 12 14 13 12 11 11 11 11 9 5 0 1 6 8 8 8 9 10 9 7 6 5 4 4 5 7 9 11 nan
nan 9 11 14 19 21 22 19 15 13 12 11 12 12 12 11 10 11 10 9 10 10 10 10 10 10 10 9 9 9 8 12 14 11 9 9 9 10 10 10 11 12 14 13 11 10 11 10 8 4 1 3 7 7 7 9 10 10 8 7 6 6 5 5 6 7 8 10 nan
nan 10 11 14 18 21 22 19 16 14 12 12 12 12 12 9 10 12 12 10 10 11 10 10 10 10 11 9 8 9 8 11 12 10 9 9 10 10 10 10 10 12 14 14 12 11 10 10 9 6 2 3 6 7 8 10 11 10 8 7 7 7 6 7 7 8 8 8 nan
nan 11 12 14 18 21 22 20 16 14 13 13 13 12 12 10 10 12 11 11 11 11 11 12 12 10 10 10 9 9 8 8 10 11 10 11 11 10 9 9 10 12 14 14 13 11 11 11 10 7 2 3 6 7 9 11 11 10 8 8 8 8 7 8 8 8 8 7 nan
nan nan nan nan nan nan nan nan nan nan nan nan nan nan nan nan nan nan nan nan nan nan nan nan nan nan nan nan nan nan nan nan nan nan nan nan nan nan nan nan nan nan nan nan nan nan nan nan nan nan nan nan nan nan nan nan nan nan nan nan nan nan nan nan nan nan nan nan nan
CAPE
nan nan nan nan nan nan nan nan 0 0 0 0 0 nan nan nan nan nan nan 0 2 2 2 4 11 14 14 11 11 11 8 9 9 8 8 9 10 12 12 12 14 14 14 9 7 7 8 7 7 7 8 11 10 9 9 14 16 16 16 14 13 10 10 11 12 12 12 12 12
nan nan nan nan 0 0 0 nan 0 0 1 1 1 1 1 0 0 nan nan 0 0 1 1 5 13 13 13 9 9 9 8 9 9 8 8 10 11 12 12 14 17 17 17 14 8 8 8 8 8 8 8 10 9 6 6 17 16 13 13 14 13 8 8 9 11 11 11 10 11
nan nan nan nan 0 0 0 nan 0 0 2 3 2 2 2 2 1 0 0 0 1 1 1 4 16 11 11 9 8 8 8 8 9 9 9 9 12 13 13 15 18 18 18 14 11 11 9 9 9 9 9 8 8 5 5 5 6 11 11 13 14 8 8 6 10 10 11 8 9
nan nan nan nan nan nan 0 nan nan nan 1 2 4 4 4 4 4 1 1 2 3 1 1 5 18 14 14 11 8 8 8 6 8 11 11 10 12 12 12 16 17 13 13 13 12 12 13 11 9 9 10 10 8 6 6 6 6 9 9 12 12 8 8 6 9 9 9 8 9
nan nan nan nan nan nan 0 0 0 0 1 2 2 2 2 4 7 6 6 4 2 0 0 6 19 18 18 10 7 7 8 6 5 10 10 12 11 14 14 15 15 12 12 12 14 14 15 12 9 9 11 11 9 7 7 8 7 8 8 9 10 9 9 6 8 8 9 8 8
nan 0 0 1 0 0 0 0 1 1 1 1 1 1 1 1 3 4 4 3 1 2 2 8 14 12 12 7 6 6 7 7 8 11 11 13 12 15 15 14 17 14 14 12 14 14 17 15 8 8 11 10 14 9 9 6 8 8 8 6 8 10 10 7 8 8 9 8 9
0 1 1 3 3 3 2 2 3 3 1 1 0 0 0 1 4 4 4 3 2 3 3 8 9 8 8 6 5 5 7 8 9 11 11 13 13 16 16 17 19 12 12 11 12 12 13 19 8 8 9 9 8 11 11 9 7 7 7 7 7 9 9 11 10 10 9 10 10
3 3 3 4 4 4 4 4 3 3 1 0 0 0 0 3 5 3 3 3 3 6 6 9 8 7 7 6 8 8 8 10 8 8 8 11 12 16 16 17 17 11 11 11 10 10 14 15 9 9 10 9 8 10 10 11 11 8 8 8 7 10 10 15 16 16 10 12 13
3 4 4 4 4 4 4 5 3 3 1 nan 1 0 0 3 7 3 3 1 2 9 9 10 10 7 7 7 11 11 12 14 12 8 8 12 17 17 17 17 14 10 10 10 12 12 17 16 10 10 10 8 8 14 14 13 16 13 13 8 8 8 8 12 13 13 10 12 14
1 3 3 2 1 1 4 4 3 3 1 nan 0 1 1 2 4 1 1 0 5 6 6 8 9 8 8 9 12 12 14 16 16 15 15 15 19 18 18 18 16 9 9 10 12 12 16 15 11 11 13 13 15 19 19 16 15 13 13 7 10 9 9 9 8 8 9 12 14
1 3 3 2 1 1 5 2 3 3 1 nan 0 2 2 2 0 nan nan 3 5 3 3 8 9 9 9 11 14 14 14 16 15 15 15 15 19 19 19 20 18 14 14 12 14 14 18 15 12 12 19 13 16 18 18 16 13 13 13 10 11 11 11 8 10 10 10 11 13
2 3 3 3 3 3 4 2 2 2 2 0 3 3 3 1 0 2 2 4 1 4 4 9 9 13 13 14 14 14 13 15 13 13 13 16 19 17 17 20 18 16 16 14 15 15 20 21 17 17 15 14 22 19 19 14 13 12 12 12 11 13 13 12 12 12 13 12 13
4 4 4 4 5 5 4 3 3 3 4 3 7 7 7 2 2 3 3 1 0 7 7 10 11 12 12 14 14 14 14 13 13 14 14 18 19 19 19 21 17 17 17 15 19 19 21 23 18 18 18 18 23 21 21 14 12 12 12 12 11 12 12 13 12 12 12 11 14
6 5 5 5 4 4 5 4 4 4 4 4 8 9 9 4 3 4 4 2 3 9 9 11 12 13 13 14 13 13 13 13 14 16 16 19 19 19 19 20 17 18 18 18 20 20 22 23 20 20 18 18 19 20 20 15 13 12 12 11 12 13 13 13 12 12 12 13 12
6 6 6 5 4 4 5 5 4 4 3 3 6 9 9 9 6 5 5 4 7 9 9 11 11 10 10 12 12 12 13 14 14 17 17 17 19 18 18 19 18 19 19 20 23 23 24 21 21 21 21 17 18 19 19 15 14 14 14 13 14 13 13 13 14 14 15 14 12
4 5 5 5 5 5 4 4 4 4 3 2 6 9 9 8 9 8 8 7 8 8 8 11 12 12 12 11 12 12 13 13 14 17 17 18 18 17 17 18 18 18 18 18 20 20 23 21 21 21 21 17 16 17 17 16 13 15 15 15 14 15 15 13 16 16 16 13 12
4 4 4 5 4 4 4 3 3 3 1 1 7 7 7 7 7 9 9 11 6 8 8 10 11 8 8 8 12 12 13 13 14 17 17 19 19 18 18 19 19 19 19 19 20 20 22 19 20 20 22 18 18 17 17 16 15 14 14 15 15 14 14 14 14 14 13 14 12
7 7 7 5 4 4 4 4 3 3 3 3 6 5 5 5 6 9 9 11 10 9 9 8 12 12 12 11 10 10 7 12 13 13 13 15 16 17 17 18 19 19 19 20 19 19 19 19 21 21 20 22 21 19 19 21 18 19 19 15 16 17 17 16 15 15 15 13 13
7 7 7 6 4 4 4 4 4 4 4 4 6 6 6 6 6 7 7 10 10 9 9 10 11 13 13 12 12 12 10 13 13 13 13 14 16 16 16 17 18 18 18 18 19 19 19 21 19 19 19 18 21 22 22 19 20 17 17 16 16 16 16 16 16 16 15 15 14
6 7 7 7 6 6 4 3 4 4 5 5 6 6 6 5 6 6 6 8 9 10 10 10 11 12 12 13 11 11 11 12 13 13 13 14 17 17 17 19 18 17 17 16 16 16 18 21 19 19 18 16 16 18 18 18 17 16 16 18 17 16 16 17 15 15 15 15 15
3 6 6 8 7 7 5 4 4 4 5 5 6 6 6 5 5 5 5 5 5 8 8 10 9 11 11 11 11 11 11 11 13 13 13 14 16 17 17 18 18 19 19 17 13 13 15 16 15 15 16 13 13 14 14 14 15 15 15 14 15 15 15 15 15 15 15 15 17
1 3 3 7 8 8 7 4 4 4 4 5 6 5 5 5 6 4 4 3 5 5 5 7 7 10 10 11 10 10 10 10 12 14 14 15 16 19 19 18 18 18 18 17 18 18 16 13 12 12 14 12 14 13 13 9 9 9 9 9 10 13 13 13 14 14 15 16 15
0 1 1 3 7 7 8 6 4 4 3 3 4 5 5 5 5 4 4 3 5 6 6 6 6 10 10 12 12 12 9 10 11 12 12 14 16 18 18 19 19 18 18 17 17 17 20 17 15 15 15 14 15 13 13 9 8 7 7 7 10 11 11 13 15 15 14 14 15
nan 0 0 nan 3 3 7 6 3 3 1 nan 1 3 3 4 5 4 4 4 5 8 8 6 7 7 7 11 10 10 9 9 10 10 10 13 16 16 16 20 19 15 15 17 13 13 16 18 19 19 18 18 15 11 11 9 9 7 7 6 8 10 10 12 14 14 13 12 11
nan nan nan nan nan nan 4 4 1 1 0 nan nan nan nan 0 1 3 3 3 5 8 8 7 7 6 6 7 9 9 9 9 10 11 11 11 15 16 16 17 17 14 14 8 6 6 9 11 13 13 17 14 12 10 10 10 7 5 5 5 6 9 9 9 11 11 10 12 12
nan nan nan nan nan nan 1 3 1 1 0 nan nan nan nan nan nan 0 0 1 3 6 6 8 8 7 7 7 9 9 9 9 10 11 11 12 14 12 12 12 13 14 14 7 6 6 7 8 9 9 12 14 11 8 8 10 8 7 7 7 7 7 7 6 6 6 7 9 12
nan nan nan nan nan nan nan 0 1 1 0 nan nan nan nan nan nan nan nan nan 0 2 2 4 7 7 7 8 9 9 10 8 9 12 12 14 16 12 12 10 12 12 12 9 8 8 7 8 9 9 9 13 12 8 8 4 8 8 8 9 8 7 7 4 1 1 3 7 11
nan nan nan nan nan nan nan 0 0 0 0 nan nan nan nan nan nan nan nan nan nan 0 0 0 3 6 6 6 9 9 10 9 9 11 11 14 14 12 12 10 12 10 10 9 10 10 8 9 9 9 8 8 13 9 9 7 7 6 6 8 8 7 7 5 4 4 1 3 7
nan nan nan nan nan nan nan 0 0 0 0 nan nan nan nan nan nan nan nan nan nan 0 0 1 1 3 3 3 7 7 10 9 10 10 10 12 13 11 11 10 11 10 10 8 10 10 10 10 10 10 8 6 8 7 7 6 6 4 4 2 6 6 6 6 6 6 2 1 2
nan nan nan nan nan nan nan nan 0 0 0 nan nan nan nan nan nan 0 0 nan nan 0 0 1 1 2 2 3 4 4 7 7 9 11 11 11 12 13 13 10 12 12 12 9 10 10 11 11 9 9 9 6 4 4 4 3 3 3 3 1 4 5 5 5 4 4 4 3 0
nan nan nan nan nan nan nan nan nan nan 0 nan nan nan nan nan nan 0 0 nan nan 0 0 0 1 1 1 2 3 3 4 5 8 10 10 10 12 10 10 10 13 13 13 11 10 10 11 11 10 10 9 6 3 2 2 1 2 2 2 3 4 4 4 4 5 5 3 2 0
nan nan nan nan nan nan nan nan nan nan 0 0 nan nan nan nan nan 0 0 0 nan 0 0 0 0 1 1 2 2 2 3 4 7 9 9 10 11 11 11 11 13 14 14 11 11 11 12 11 10 10 9 6 3 1 1 nan 0 1 1 2 3 2 2 nan 3 3 2 2 1
nan nan nan nan nan nan nan nan nan nan nan 1 0 nan nan nan nan 0 0 0 0 0 0 0 0 1 1 2 2 2 3 4 6 7 7 8 9 9 9 11 11 11 11 11 11 11 12 11 10 10 9 6 3 0 0 nan nan 0 0 1 2 3 3 3 3 3 1 0 1
nan nan nan nan nan nan nan nan nan nan nan 0 0 nan nan nan nan nan nan 0 0 0 0 0 0 1 1 1 2 2 2 3 5 7 7 7 7 7 7 11 15 9 9 12 13 13 12 12 10 10 8 6 5 1 1 nan nan 0 0 1 2 2 2 2 3 3 1 1 0
nan nan nan nan nan nan nan nan nan nan nan nan 0 nan nan nan nan nan nan 0 1 1 1 0 0 0 0 0 2 2 3 2 3 7 7 9 7 6 6 10 12 9 9 11 11 11 11 11 9 9 8 6 6 1 1 nan nan 0 0 2 1 1 1 2 3 3 3 3 2
nan nan nan nan nan nan nan nan nan nan nan nan nan nan nan nan nan nan nan 0 1 1 1 1 1 1 1 2 1 1 1 1 3 8 8 9 8 7 7 9 11 10 10 11 10 10 10 10 10 10 8 7 5 2 2 0 nan 0 0 0 1 2 2 3 3 3 5 6 3
nan nan nan nan nan nan nan nan nan nan nan nan nan nan nan nan nan nan nan 0 2 2 2 1 1 2 2 2 1 1 2 2 1 7 7 8 8 7 7 8 10 10 10 10 9 9 9 10 10 10 8 6 4 2 2 1 0 0 0 nan 0 2 2 3 4 4 6 7 4
nan nan nan nan nan nan nan nan nan nan nan nan nan nan nan nan nan 0 0 1 2 2 2 1 1 2 2 2 2 2 4 3 2 3 3 7 7 7 7 7 9 9 9 8 9 9 9 9 10 10 7 3 2 1 1 0 0 0 0 nan nan 1 1 3 4 4 6 7 3
nan nan nan nan nan nan nan nan nan nan nan nan nan nan nan nan nan nan nan 0 1 1 1 1 2 2 2 2 1 1 3 4 3 2 2 5 8 6 6 5 8 9 9 6 7 7 8 9 9 9 6 2 1 0 0 nan nan nan nan nan nan 0 0 2 3 3 6 9 5
nan nan nan nan nan nan nan nan nan nan nan nan nan nan nan nan nan nan nan nan 1 1 1 1 1 1 1 1 2 2 2 4 4 4 4 5 8 5 5 6 8 8 8 6 6 6 6 8 8 8 6 2 1 0 0 nan nan nan nan nan nan 0 0 1 3 3 5 8 8
nan nan nan nan nan nan nan nan nan nan nan nan nan nan nan nan nan nan nan 0 0 0 0 0 0 0 0 1 2 2 1 3 4 7 7 7 7 6 6 8 8 9 9 6 4 4 6 8 8 8 6 2 1 nan nan nan nan nan nan nan nan nan nan 1 2 2 3 6 8